Wind_Speed
28 28 27 27 26 26 27 28 29 28 28 27 27 28 27 28 29 30 30 31 32 32 33 34 35 36 37 38 39 40 42 43 44 45 46 47 48 49 50 51 51 52 52 52
28 27 27 27 26 26 27 27 28 29 29 28 28 28 29 28 28 29 29 30 31 32 33 34 35 36 37 38 40 41 42 42 42 43 44 45 46 47 49 49 50 51 52 52
28 27 28 27 27 27 27 27 27 28 28 29 29 28 29 29 29 29 29 30 31 32 33 34 35 37 38 39 40 41 41 42 43 44 45 45 45 46 47 48 49 50 50 51
29 28 28 28 28 28 28 28 28 28 28 29 30 30 30 31 30 30 30 30 31 32 34 34 35 36 37 38 39 39 41 42 43 43 44 46 46 47 48 49 49 50 50 51
29 30 31 30 29 29 29 29 29 29 29 30 30 30 30 31 32 32 33 33 33 33 33 34 35 36 37 38 39 39 40 41 42 43 43 44 45 47 47 48 48 48 49 49
29 31 32 31 31 31 31 30 30 29 29 30 30 30 30 31 33 34 34 35 35 35 35 35 36 36 37 38 38 39 39 39 40 42 42 43 44 45 46 46 46 47 46 46
30 31 32 32 31 31 31 31 31 30 30 30 31 31 32 32 33 34 34 35 36 36 36 36 37 37 37 38 38 38 38 39 39 40 41 42 43 43 44 44 45 45 45 45
31 32 32 32 31 31 32 32 32 32 32 31 31 32 32 33 33 34 34 35 35 36 36 36 36 36 37 37 38 38 38 38 39 39 40 40 41 42 43 43 44 44 44 44
31 31 32 32 32 32 32 32 32 32 32 33 33 33 33 33 34 35 35 35 35 36 35 35 35 36 36 36 37 37 37 37 38 38 39 39 40 41 42 42 43 43 43 43
32 32 32 32 33 33 32 33 33 33 33 33 34 34 34 35 35 36 36 36 36 35 35 35 35 35 35 35 35 35 36 37 37 38 38 39 39 40 41 41 41 42 43 42
32 32 32 32 32 32 32 32 33 33 34 34 34 35 35 36 36 36 36 36 36 36 35 35 34 33 33 34 34 35 35 36 37 38 37 38 38 38 39 39 40 40 41 41
32 32 32 31 31 31 31 31 32 33 33 34 35 35 36 36 36 36 36 35 35 34 34 33 33 33 33 34 35 35 35 35 36 36 36 37 37 37 37 38 39 40 40 40
31 31 31 31 31 31 31 31 32 32 33 33 34 35 35 35 35 35 35 35 34 33 33 33 33 33 33 34 34 34 34 35 35 35 36 36 36 37 37 37 38 38 39 40
30 30 31 31 31 31 32 32 32 33 33 33 34 34 34 34 34 33 33 34 34 33 33 33 33 33 33 34 34 34 34 34 34 34 35 35 35 36 36 36 37 37 38 38
30 30 31 31 31 31 32 32 32 33 33 33 34 34 34 34 33 33 33 33 34 34 34 34 34 34 34 34 34 34 33 33 33 33 34 34 34 35 35 36 36 36 37 37
30 30 30 31 31 31 32 32 32 33 33 34 34 34 34 34 33 33 33 33 33 33 34 33 33 33 33 33 34 34 34 34 34 33 33 33 34 34 34 34 34 35 35 36
29 30 31 31 31 31 32 32 33 33 33 33 33 33 33 33 33 33 33 33 33 34 34 33 33 33 33 33 33 34 34 34 34 33 33 33 34 34 34 34 35 35 35 35
30 31 31 31 31 32 32 33 33 33 33 33 33 33 33 33 33 33 33 34 33 33 33 33 33 33 32 33 33 33 33 33 33 33 33 33 34 33 33 34 35 35 35 36
30 31 32 32 32 33 33 33 33 33 33 32 33 33 33 33 33 33 33 33 33 33 33 33 33 32 32 32 32 32 32 32 32 33 33 33 34 34 34 34 34 35 35 36
31 32 32 33 33 33 33 33 33 33 33 33 34 34 34 34 34 33 33 34 33 33 33 33 32 32 31 31 31 31 30 30 31 32 33 33 33 33 34 34 34 34 34 34
32 33 33 34 33 33 33 34 34 34 34 34 35 35 35 35 34 34 33 33 33 33 32 32 31 31 30 30 30 30 31 30 30 31 31 32 33 33 34 33 33 33 33 34
33 34 34 34 34 34 35 35 35 35 35 35 35 34 34 34 34 34 33 33 32 32 31 31 30 30 30 30 30 30 30 30 30 30 30 31 31 32 32 32 32 33 33 33
34 34 34 34 35 35 36 36 36 36 35 35 34 34 34 34 34 33 33 32 32 31 30 30 30 30 30 29 29 29 29 29 29 29 29 29 30 30 31 32 32 33 33 33
33 34 34 34 34 35 35 35 35 35 34 34 34 34 33 33 33 33 32 31 31 30 29 29 29 29 29 29 28 28 27 28 28 28 28 28 29 29 30 30 31 32 32 33
33 33 34 34 34 34 34 34 34 34 34 34 33 33 33 32 32 31 30 29 29 28 28 28 28 27 27 26 26 26 26 26 26 27 27 28 28 29 29 29 29 30 31 32
33 34 34 34 34 34 34 34 33 33 33 33 32 31 31 30 30 29 29 28 27 27 27 27 26 26 26 26 26 25 25 26 26 26 27 27 27 27 27 27 27 28 28 29
33 34 34 34 34 33 33 33 32 32 32 31 30 30 30 29 29 29 28 27 27 27 27 26 26 25 25 25 25 25 25 26 26 26 26 25 25 25 25 26 26 26 27 27
Wind_Direction
296 296 293 293 292 289 288 285 283 283 283 282 279 277 277 275 275 275 274 274 272 270 267 267 266 264 263 262 261 260 260 260 260 260 260 259 259 258 258 258 259 258 259 260
294 294 292 291 292 291 290 288 285 282 281 281 281 278 276 278 278 277 276 275 273 271 269 268 268 267 265 263 262 261 261 261 260 261 261 260 260 259 259 259 259 259 260 260
293 295 293 291 291 290 290 291 289 285 283 281 280 281 279 278 278 279 278 276 275 274 272 271 269 268 268 266 264 263 263 262 261 261 261 260 260 259 258 258 259 259 260 260
294 294 293 294 291 290 290 291 291 287 285 283 282 281 281 280 279 279 279 278 277 276 275 274 273 271 270 270 268 266 266 265 263 262 261 260 260 259 259 258 259 260 260 260
294 293 293 293 292 291 290 290 290 289 287 286 285 283 282 282 281 280 280 280 279 278 277 275 274 273 271 271 271 269 268 268 266 264 262 261 260 260 259 259 259 260 260 260
295 293 294 295 293 291 290 290 290 289 288 286 286 284 284 283 283 282 281 281 281 281 280 278 277 275 273 273 271 270 269 269 268 265 264 263 261 260 260 260 260 260 260 261
295 294 294 294 294 293 291 291 290 289 288 287 286 286 286 285 284 283 282 282 282 282 281 280 279 277 275 274 272 270 269 269 268 267 265 264 263 261 260 260 260 260 260 260
296 294 295 295 293 292 291 289 289 288 287 286 287 287 288 288 287 284 283 283 283 283 282 281 280 279 277 275 272 271 269 268 268 268 266 265 264 263 262 261 261 260 259 259
296 295 294 293 292 291 290 289 289 288 287 286 286 287 288 288 287 286 286 285 284 283 283 283 282 280 278 276 273 271 270 269 268 267 267 266 266 265 264 262 261 260 259 259
296 295 294 293 292 291 290 289 288 288 288 288 287 287 287 287 287 287 286 286 285 284 284 283 282 280 279 277 275 273 271 270 269 268 268 267 267 266 265 264 262 261 260 260
295 295 295 295 294 292 290 290 288 287 288 288 288 288 288 289 289 288 287 287 286 285 284 283 282 280 278 277 276 274 273 272 270 270 269 268 267 267 266 265 263 262 261 260
296 296 296 296 296 295 293 291 290 289 289 289 289 289 289 289 289 288 288 287 287 285 284 284 282 280 278 278 277 275 274 273 272 271 270 268 267 266 265 264 263 262 262 261
296 296 296 296 296 295 294 294 293 292 291 291 292 292 292 291 290 288 287 287 286 286 285 284 283 281 279 279 279 277 276 274 272 271 270 269 268 266 265 264 263 262 262 261
296 296 296 296 296 296 295 295 294 294 293 293 293 293 293 292 291 290 288 287 286 285 284 283 282 281 279 280 280 279 277 276 274 272 271 270 268 267 266 264 263 262 262 261
296 297 298 298 297 296 296 296 296 295 295 295 295 294 294 293 292 290 289 287 286 285 285 284 283 282 280 279 279 278 277 276 274 273 272 270 269 268 267 265 263 263 262 261
297 298 299 299 299 298 298 297 298 298 297 297 296 295 295 294 292 291 289 288 287 286 286 286 285 283 281 279 279 278 277 276 275 272 271 270 269 268 266 264 263 262 261 261
300 301 301 301 301 301 300 299 299 299 298 298 297 297 296 295 294 292 291 290 289 288 287 287 286 284 283 281 280 278 277 276 275 273 271 270 269 267 266 264 263 262 261 262
301 301 301 301 302 302 301 301 300 300 299 299 297 297 297 296 295 294 292 291 290 289 288 288 287 285 284 283 282 280 278 277 275 274 272 271 269 268 266 264 263 263 262 262
301 302 301 301 302 302 302 302 301 301 300 299 298 297 297 297 297 295 294 292 291 290 289 288 287 286 285 284 284 282 280 278 276 274 272 271 270 270 268 267 265 264 263 262
302 302 303 303 302 302 302 302 302 301 300 298 298 298 298 297 297 297 295 294 292 290 289 288 287 285 284 283 283 282 281 280 277 274 272 272 271 271 269 267 265 264 263 261
303 303 303 303 303 303 302 302 302 301 301 299 299 298 298 298 297 297 296 295 293 291 289 288 287 286 285 283 282 281 281 280 279 277 274 273 271 270 268 266 264 263 261 260
304 304 303 303 302 302 302 302 302 302 301 301 300 299 298 298 298 297 296 295 293 291 289 288 287 286 286 285 283 282 281 280 279 279 277 275 273 270 268 265 263 262 261 261
306 305 304 302 302 302 302 302 302 302 301 301 301 300 299 298 298 297 296 295 293 292 290 288 286 286 286 285 284 283 282 281 280 279 278 277 274 272 269 267 265 263 262 261
308 308 307 305 304 304 304 304 303 303 302 302 301 300 300 299 298 298 297 295 293 292 290 288 287 287 287 286 285 285 284 283 282 281 280 278 276 274 271 269 267 265 263 261
310 310 309 308 308 307 307 306 305 305 304 304 303 302 301 300 299 299 298 296 294 292 291 289 287 287 287 287 286 286 285 285 284 284 282 281 278 276 273 270 268 266 264 262
311 311 311 311 310 309 309 308 307 307 306 305 304 303 303 302 302 300 299 297 295 294 292 290 287 286 287 287 287 286 287 286 286 285 285 282 280 277 275 272 269 267 265 263
312 312 313 312 312 312 311 310 310 309 309 307 306 305 305 304 303 301 299 297 296 295 294 291 288 286 286 286 287 287 288 288 288 287 286 284 282 279 277 274 270 268 265 264
Height
5556 5553 5550 5547 5545 5542 5539 5537 5534 5533 5530 5528 5526 5525 5523 5521 5520 5519 5517 5516 5515 5514 5514 5513 5513 5512 5512 5512 5513 5514 5515 5516 5516 5517 5518 5519 5520 5521 5522 5523 5524 5525 5526 5527
5548 5545 5542 5539 5537 5534 5531 5529 5526 5524 5522 5520 5518 5516 5514 5512 5511 5509 5508 5506 5505 5504 5504 5503 5502 5502 5501 5501 5501 5502 5502 5503 5503 5504 5505 5506 5506 5506 5507 5509 5510 5511 5512 5513
5540 5537 5533 5531 5530 5527 5524 5521 5518 5515 5515 5511 5509 5507 5505 5503 5502 5500 5498 5496 5495 5494 5493 5492 5491 5490 5490 5489 5489 5489 5489 5490 5490 5491 5492 5492 5492 5493 5494 5495 5496 5496 5498 5499
5530 5529 5525 5526 5521 5518 5515 5513 5510 5507 5505 5502 5500 5498 5496 5494 5492 5490 5488 5486 5485 5483 5482 5481 5480 5479 5478 5477 5476 5476 5477 5477 5477 5477 5478 5478 5479 5479 5480 5481 5482 5483 5484 5484
5522 5518 5516 5516 5512 5509 5506 5504 5502 5499 5496 5493 5491 5489 5487 5484 5482 5480 5479 5477 5475 5473 5471 5470 5468 5467 5466 5465 5464 5464 5464 5464 5463 5463 5464 5464 5464 5465 5466 5467 5468 5468 5469 5470
5513 5509 5507 5507 5503 5499 5498 5495 5493 5490 5487 5485 5482 5480 5479 5475 5473 5470 5468 5466 5464 5462 5460 5459 5457 5455 5454 5453 5452 5452 5451 5451 5450 5450 5450 5450 5450 5451 5452 5453 5454 5454 5455 5456
5504 5500 5498 5497 5493 5491 5489 5488 5484 5480 5478 5475 5473 5471 5469 5465 5463 5460 5458 5456 5453 5451 5449 5447 5445 5444 5442 5441 5440 5439 5439 5438 5438 5437 5437 5437 5437 5438 5438 5439 5440 5441 5442 5442
5496 5493 5492 5487 5484 5482 5480 5476 5473 5471 5468 5466 5463 5461 5458 5455 5453 5450 5448 5445 5443 5440 5438 5436 5434 5432 5430 5429 5428 5427 5426 5426 5425 5425 5424 5424 5424 5424 5425 5425 5426 5427 5428 5429
5488 5487 5482 5478 5475 5472 5469 5467 5464 5462 5459 5456 5454 5451 5449 5446 5442 5440 5437 5434 5432 5429 5427 5424 5422 5420 5418 5417 5416 5415 5414 5413 5413 5412 5412 5412 5412 5412 5412 5412 5413 5414 5415 5416
5478 5475 5472 5469 5465 5462 5460 5457 5454 5452 5449 5446 5444 5441 5438 5435 5432 5429 5426 5423 5421 5418 5416 5413 5411 5408 5407 5405 5404 5403 5402 5401 5401 5400 5400 5399 5399 5399 5399 5399 5399 5400 5401 5402
5469 5466 5462 5459 5456 5453 5450 5447 5444 5442 5439 5436 5433 5430 5427 5424 5421 5418 5415 5412 5409 5407 5404 5402 5400 5397 5395 5394 5392 5391 5390 5389 5388 5388 5387 5387 5387 5386 5386 5386 5386 5387 5388 5389
5460 5457 5453 5450 5447 5443 5440 5437 5434 5432 5429 5426 5423 5420 5416 5413 5409 5406 5404 5401 5398 5395 5393 5391 5388 5386 5384 5382 5381 5380 5378 5377 5376 5375 5375 5374 5374 5374 5373 5374 5374 5375 5375 5376
5450 5447 5444 5441 5438 5434 5431 5428 5425 5422 5419 5415 5412 5409 5405 5402 5398 5395 5392 5390 5387 5384 5382 5380 5377 5375 5373 5371 5369 5368 5366 5365 5364 5363 5362 5362 5362 5362 5362 5362 5362 5362 5363 5363
5441 5438 5435 5432 5429 5425 5422 5419 5415 5412 5408 5405 5402 5398 5394 5391 5388 5384 5381 5378 5376 5373 5371 5368 5366 5364 5361 5360 5358 5356 5355 5353 5352 5351 5350 5350 5349 5349 5349 5350 5350 5350 5351 5351
5433 5430 5426 5423 5419 5416 5412 5409 5406 5402 5398 5395 5391 5387 5384 5380 5377 5373 5370 5367 5365 5362 5359 5357 5354 5352 5350 5348 5346 5345 5343 5342 5340 5339 5338 5338 5337 5337 5337 5337 5338 5338 5339 5339
5424 5421 5417 5414 5410 5406 5403 5399 5396 5392 5388 5384 5380 5377 5373 5369 5366 5363 5359 5356 5353 5351 5348 5345 5343 5340 5338 5336 5335 5333 5332 5330 5329 5328 5327 5326 5326 5326 5325 5326 5326 5326 5327 5327
5415 5412 5408 5405 5401 5397 5393 5390 5386 5382 5378 5374 5370 5366 5362 5359 5355 5352 5348 5345 5342 5339 5336 5334 5331 5329 5326 5325 5323 5321 5320 5319 5317 5316 5315 5315 5314 5314 5314 5314 5314 5314 5315 5315
5406 5403 5399 5395 5392 5388 5384 5380 5376 5372 5368 5364 5360 5356 5352 5348 5344 5341 5337 5334 5331 5328 5325 5322 5320 5317 5315 5313 5311 5309 5308 5306 5305 5304 5303 5303 5302 5302 5302 5302 5302 5303 5303 5303
5397 5393 5390 5386 5382 5378 5374 5370 5366 5362 5357 5353 5349 5346 5342 5338 5334 5330 5327 5323 5320 5317 5314 5311 5308 5306 5304 5301 5299 5297 5296 5294 5293 5292 5291 5291 5290 5290 5290 5290 5290 5290 5291 5291
5388 5384 5380 5376 5372 5368 5364 5360 5355 5351 5347 5343 5339 5335 5331 5327 5323 5320 5316 5312 5309 5305 5303 5300 5297 5295 5292 5290 5288 5286 5284 5283 5281 5280 5279 5278 5278 5278 5277 5277 5278 5278 5278 5279
5378 5374 5370 5366 5362 5358 5354 5349 5345 5341 5337 5333 5329 5325 5320 5316 5312 5309 5305 5301 5298 5294 5291 5289 5286 5284 5281 5279 5277 5275 5273 5272 5270 5269 5268 5267 5266 5265 5265 5265 5265 5266 5266 5267
5368 5364 5360 5356 5352 5348 5343 5339 5335 5330 5326 5322 5318 5313 5309 5305 5301 5297 5294 5290 5287 5284 5281 5278 5276 5273 5271 5269 5266 5264 5262 5261 5259 5258 5256 5255 5254 5254 5253 5253 5253 5254 5254 5255
5359 5354 5350 5346 5342 5337 5333 5328 5324 5320 5315 5311 5307 5303 5299 5294 5290 5287 5283 5280 5276 5273 5270 5268 5265 5263 5260 5258 5256 5254 5252 5250 5249 5247 5246 5244 5243 5243 5242 5242 5242 5242 5243 5243
5349 5344 5340 5335 5331 5327 5322 5317 5313 5309 5304 5300 5296 5292 5288 5284 5280 5276 5272 5269 5266 5263 5260 5257 5255 5252 5250 5248 5246 5244 5242 5240 5238 5237 5235 5234 5233 5232 5231 5231 5230 5230 5231 5231
5340 5335 5330 5326 5321 5317 5312 5307 5303 5298 5294 5290 5285 5281 5277 5273 5270 5266 5262 5259 5255 5253 5250 5247 5245 5243 5240 5238 5236 5234 5233 5231 5229 5227 5225 5224 5222 5221 5220 5220 5219 5219 5219 5220
5330 5326 5321 5316 5311 5306 5302 5297 5293 5288 5284 5279 5275 5271 5267 5263 5259 5256 5252 5249 5246 5243 5241 5238 5236 5233 5231 5229 5227 5225 5223 5221 5219 5218 5216 5214 5212 5211 5210 5210 5209 5209 5209 5209
5321 5316 5311 5306 5301 5296 5292 5287 5283 5278 5274 5270 5266 5262 5258 5254 5250 5246 5243 5240 5237 5234 5231 5228 5226 5224 5222 5220 5218 5216 5214 5212 5210 5208 5206 5204 5203 5202 5201 5200 5199 5199 5199 5199